If you wish to contribute or participate in the discussions about articles you are invited to join SKYbrary as a registered user

 Actions

Almirante Padilla Airport

From SKYbrary Wiki

SKRH
Airport
ICAO: SKRH – IATA: RCH
Summary
Name Almirante Padilla Airport
Region South America and Caribbean
Territory Colombia CO.gif
Location Riohacha, Guajira Department
Serving Riohacha
Elevation 13.106 m
43 ft13.106 m
Coordinates 11° 31' 42.96" N, 72° 55' 9.02" W
Runways
Designator Length Width Surface ROPS
9/27 1650 m5,413.386 ft
30 m98.425 ft
ASP /
10/28 0 m0 ft
0 m0 ft
UNK yes/yes


METAR
Observation SKRH 141800Z 11015KT 9999 FEW020 SCT200 36/22 A2980
Station Riohacha / Almirante Padilla
Date/Time 14 July 2019 18:00:00
Wind direction 110°
Wind speed 15 kts
Lowest cloud amount few clouds
Temperature 36°C
Dew point 22°C
Humidity 44%
QNH hPa
Weather condition n/a

Almirante Padilla Airport is an airport serving the Caribbean coastal city of Riohacha in the Guajira Department of Colombia. The airport is on the southwestern edge of the city.

Climatology

Semi-arid climate (Köppen climate classification BSh)

Maps

Terrain

Loading map...

Airport Layout

Loading map...


Accidents & Serious Incidents at or in vicinity of SKRH

None on SKYbrary